Home   Weather   Melbourne Port   Past weeks
Flag for Australia

Past Weather in Melbourne Port, Victoria, Australia — Yesterday and Last 2 Weeks

Now
68 °F

Clear.


Feels Like: 68 °F
Forecast: 78 / 62 °F
Wind: 15 mph from North

Location: Melbourne Airport

Current Time: Apr 21, 2019 at 4:31:59 am

Latest Report: Apr 21, 2019 at 4:00 am


Visibility: 10 mi

Pressure: 30.04 "Hg

Humidity: 40%

Dew Point: 43 °F

Location of Melbourne PortLocation

Past Weather in Melbourne Port — Graph

°F

Melbourne Port Temperature Yesterday

Maximum temperature yesterday: 88 °F (at 3:00 pm)
Minimum temperature yesterday: 48 °F (at 4:30 am)
Average temperature yesterday: 68 °F

High & Low Weather Summary for the Past Weeks

 TemperatureHumidityPressure
High88 °F (Apr 17, 3:00 pm)100% (Apr 7, 2:00 am)30.39 "Hg (Apr 7, 2:00 am)
Low43 °F (Apr 12, 1:00 am)13% (Apr 12, 3:00 pm)29.80 "Hg (Apr 8, 4:30 pm)
Average62 °F55%30.15 "Hg
* Reported Apr 6 4:00 am — Apr 21 3:30 am, Melbourne Port. Weather by CustomWeather, © 2019

Note: Actual official high and low records may vary slightly from our data, if they occured in-between our weather recording intervals... More about our weather records

Advertising

Melbourne Port Weather History for the Previous 24 Hours

Scroll right to see more
 ConditionsComfort  
Time TempWeatherWind HumidityBarometerVisibility
3:30 am
Sun, Apr 21
70 °FClear.17 mph38%30.04 "Hg10 mi
3:00 am70 °FClear.17 mph38%30.04 "Hg10 mi
2:30 am68 °FClear.13 mph38%30.04 "Hg10 mi
2:00 am70 °FClear.15 mph35%30.04 "Hg10 mi
1:30 am66 °FClear.10 mph40%30.07 "Hg10 mi
1:00 am68 °FClear.13 mph38%30.07 "Hg10 mi
12:30 am70 °FClear.12 mph35%30.07 "Hg10 mi
12:00 am66 °FClear.13 mph40%30.07 "Hg10 mi
11:30 pm
Sat, Apr 20
64 °FClear.10 mph43%30.07 "Hg10 mi
11:00 pm70 °FClear.10 mph35%30.09 "Hg10 mi
10:30 pm70 °FClear.13 mph35%30.09 "Hg10 mi
10:00 pm70 °FClear.14 mph33%30.09 "Hg10 mi
9:30 pm72 °FClear.15 mph31%30.09 "Hg10 mi
9:00 pm68 °FClear.13 mph38%30.09 "Hg10 mi
8:30 pm70 °FClear.13 mph33%30.09 "Hg10 mi
8:00 pm73 °FClear.13 mph29%30.09 "Hg10 mi
7:30 pm72 °FClear.13 mph31%30.09 "Hg10 mi
7:00 pm70 °FClear.10 mph33%30.09 "Hg10 mi
6:30 pm72 °FClear.10 mph31%30.09 "Hg10 mi
6:00 pm75 °FClear.13 mph27%30.09 "Hg10 mi
5:30 pm79 °FSunny.15 mph24%30.07 "Hg10 mi
5:00 pm82 °FSunny.13 mph21%30.07 "Hg10 mi
4:00 pm86 °FPassing clouds.8 mph18%30.09 "HgN/A
3:30 pm86 °FPassing clouds.5 mph18%30.09 "HgN/A
3:00 pm88 °FPassing clouds.8 mph17%30.09 "HgN/A
2:30 pm86 °FPassing clouds.15 mph17%30.09 "HgN/A
2:00 pm86 °FSunny.15 mph18%30.12 "Hg10 mi
1:30 pm84 °FSunny.18 mph18%30.12 "Hg10 mi
1:00 pm84 °FSunny.15 mph18%30.15 "Hg10 mi
12:30 pm81 °FSunny.16 mph18%30.15 "Hg10 mi
12:00 pm82 °FSunny.16 mph19%30.15 "Hg10 mi
11:30 am81 °FSunny.17 mph18%30.18 "Hg10 mi
11:00 am79 °FSunny.17 mph20%30.18 "Hg10 mi
10:00 am75 °FSunny.17 mph19%30.21 "Hg10 mi
9:30 am73 °FSunny.17 mph22%30.21 "Hg10 mi
9:00 am70 °FSunny.14 mph29%30.21 "Hg10 mi
8:30 am66 °FSunny.12 mph32%30.21 "Hg10 mi
8:00 am61 °FSunny.10 mph42%30.21 "Hg10 mi
7:30 am57 °FSunny.12 mph48%30.21 "Hg10 mi
7:00 am50 °FSunny.5 mph67%30.21 "Hg10 mi
6:30 am52 °FClear.8 mph62%30.21 "Hg10 mi
6:00 am52 °FClear.6 mph62%30.21 "Hg10 mi
5:30 am52 °FClear.10 mph62%30.21 "Hg10 mi
5:00 am48 °FClear.8 mph71%30.21 "Hg10 mi
4:30 am48 °FClear.7 mph76%30.21 "Hg10 mi
4:00 am52 °FClear.9 mph67%30.21 "Hg10 mi
Weather by CustomWeather, © 2019

See weather overview